Darstellungsparameter: Aktuell verwendete Einstellungen:
Skalierung der Graphiken ... ?
xyx+y,   Skalierungsfaktor:      Skalierung: Modus: x, Faktor: 1
Darstellungszeitraum ... ?
Vom - - bis: - -   Zeitraum: 09.09.2010 - 15.09.2010
Min/Max/Avg-Anzeige ... ?
Zeige MMA aktuell
Zeige MMA Monat
Zeige MMA alles
Zeige --A aktuell
Zeige --A Monat
Zeige --A alles
Keine MMA-Anzeige
MMA:
Average (ber die Originaldaten)
MMA-Basis: 23.02.2003 - 30.09.2020
Quicknavigation für Darstellung... ?
Tage:      1T, 2T, 3T, 5T -1T -2T -3T -5T +1T +2T +3T +5T
Wochen: 1W, 2W, 3W -1W -2W -3W +1W +2W +3W
Monate: 1M, 3M, 6M -1M -3M -6M +1M +3M +6M
Jahre:    1J, 3J, 5J, 10J -1J -3J -5J -10J +1J +3J +5J +10J
Nutze für die Darstellung ... ?
Originaldaten oder Mittelwerte auf ...
Stundenbasis Tagesbasis Wochenbasis
Monatsbasis Jahresbasis      Datenbasis: Original-Daten
Darstellen als:
Statistik (Auto) Statistik J:M      Darstellung:
Zur Graphik,    zurück zur Übersicht aller Sensoren.
 
Tabellarische Datenbersicht: ?
 
Sensor: Nr:Datum:Temp:Abs-Feuchte:Windchill:Wind:
Aussen-T/F 1 09-09-2010 00:07:03 14.4 C 10.14 g/m*3 14.4 C 0 km/h
2 09-09-2010 00:19:03 14.4 C 10.14 g/m*3 14.4 C 0 km/h
3 09-09-2010 00:31:03 14.1 C 10.07 g/m*3 14.1 C 0 km/h
4 09-09-2010 00:43:03 14.5 C 10.32 g/m*3 14.5 C 0 km/h
5 09-09-2010 00:55:03 14.5 C 10.32 g/m*3 14.5 C 0 km/h
6 09-09-2010 01:07:03 14.8 C 10.39 g/m*3 14.8 C 0 km/h
7 09-09-2010 01:19:03 15 C 10 g/m*3 15 C 0 km/h
8 09-09-2010 01:31:03 15.1 C 10.06 g/m*3 15.1 C 0 km/h
9 09-09-2010 01:43:03 15.2 C 9.99 g/m*3 15.2 C 0 km/h
10 09-09-2010 01:55:03 15.1 C 9.93 g/m*3 15.1 C 0 km/h
11 09-09-2010 02:07:03 15.2 C 9.99 g/m*3 15.2 C 0 km/h
12 09-09-2010 02:19:03 15.1 C 9.93 g/m*3 15.1 C 0 km/h
13 09-09-2010 02:31:03 15.1 C 9.93 g/m*3 15.1 C 0 km/h
14 09-09-2010 02:43:03 15.1 C 9.93 g/m*3 15.1 C 0 km/h
15 09-09-2010 02:55:03 15.2 C 9.86 g/m*3 15.2 C 0 km/h
16 09-09-2010 03:07:03 15.2 C 9.86 g/m*3 15.2 C 0 km/h
17 09-09-2010 03:19:03 15.3 C 9.79 g/m*3 15.3 C 0 km/h
18 09-09-2010 03:31:03 15.3 C 9.79 g/m*3 15.3 C 0 km/h
19 09-09-2010 03:43:03 15.4 C 9.72 g/m*3 15.4 C 0 km/h
20 09-09-2010 03:55:04 15.4 C 9.72 g/m*3 15.4 C 0 km/h
21 09-09-2010 04:07:04 15.4 C 9.59 g/m*3 15.4 C 0 km/h
22 09-09-2010 04:19:04 15.2 C 9.48 g/m*3 15.2 C 0 km/h
23 09-09-2010 04:31:04 15.2 C 9.35 g/m*3 15.2 C 0 km/h
24 09-09-2010 04:43:04 15.2 C 9.22 g/m*3 15.2 C 0 km/h
25 09-09-2010 04:55:04 15.1 C 9.03 g/m*3 15.1 C 0 km/h
Sensor: Nr:Datum:Temp:Abs-Feuchte:Windchill:Wind:
Aussen-T/F 26 09-09-2010 05:07:04 14.9 C 9.05 g/m*3 14.9 C 0 km/h
27 09-09-2010 05:19:04 14.9 C 9.05 g/m*3 14.9 C 0 km/h
28 09-09-2010 05:31:04 14.9 C 9.05 g/m*3 14.9 C 0 km/h
29 09-09-2010 05:43:04 14.9 C 9.05 g/m*3 14.9 C 0 km/h
30 09-09-2010 05:55:04 14.9 C 8.92 g/m*3 14.9 C 0 km/h
31 09-09-2010 06:07:04 14.8 C 8.87 g/m*3 14.8 C 0 km/h
32 09-09-2010 06:19:04 14.8 C 8.87 g/m*3 14.8 C 0 km/h
33 09-09-2010 06:31:04 14.8 C 8.87 g/m*3 14.8 C 0 km/h
34 09-09-2010 06:43:04 14.8 C 8.87 g/m*3 14.8 C 0 km/h
35 09-09-2010 06:55:04 14.7 C 8.94 g/m*3 14.7 C 0 km/h
36 09-09-2010 07:07:04 14.5 C 9.08 g/m*3 14.5 C 0 km/h
37 09-09-2010 07:19:04 14.5 C 9.08 g/m*3 14.5 C 0 km/h
38 09-09-2010 07:31:04 14.6 C 9.13 g/m*3 14.6 C 0 km/h
39 09-09-2010 07:43:04 14.6 C 9.01 g/m*3 14.6 C 0 km/h
40 09-09-2010 07:55:04 14.7 C 9.07 g/m*3 14.7 C 0 km/h
41 09-09-2010 08:07:02 14.7 C 9.07 g/m*3 14.7 C 0 km/h
42 09-09-2010 08:19:02 14.8 C 9.12 g/m*3 14.8 C 0 km/h
43 09-09-2010 08:31:02 14.8 C 9.12 g/m*3 14.8 C 0 km/h
44 09-09-2010 08:43:02 14.8 C 9.12 g/m*3 14.8 C 0 km/h
45 09-09-2010 08:55:02 14.9 C 9.05 g/m*3 14.9 C 0 km/h
46 09-09-2010 09:07:02 14.9 C 9.05 g/m*3 14.9 C 0 km/h
47 09-09-2010 09:19:03 14.9 C 9.05 g/m*3 14.9 C 0 km/h
48 09-09-2010 09:31:02 15.2 C 9.09 g/m*3 15.2 C 0 km/h
49 09-09-2010 09:43:02 15.5 C 9.12 g/m*3 15.5 C 0 km/h
50 09-09-2010 09:55:01 15.8 C 9.15 g/m*3 15.8 C 0 km/h
Sensor: Nr:Datum:Temp:Abs-Feuchte:Windchill:Wind:
Aussen-T/F 51 09-09-2010 10:07:02 16 C 8.99 g/m*3 16 C 0 km/h
52 09-09-2010 10:19:02 16.4 C 9.07 g/m*3 16.4 C 0 km/h
53 09-09-2010 10:31:01 16.8 C 9.15 g/m*3 16.8 C 0 km/h
54 09-09-2010 10:43:01 17.2 C 9.08 g/m*3 17.2 C 0 km/h
55 09-09-2010 10:55:02 17.4 C 9.19 g/m*3 17.4 C 0 km/h
56 09-09-2010 11:07:01 17.5 C 9.09 g/m*3 17.5 C 0 km/h
57 09-09-2010 11:19:02 17.5 C 9.09 g/m*3 17.5 C 0 km/h
58 09-09-2010 11:31:02 17.8 C 8.8 g/m*3 17.8 C 0 km/h
59 09-09-2010 11:43:02 17.8 C 8.65 g/m*3 17.8 C 0 km/h
60 09-09-2010 11:55:02 18.3 C 8.76 g/m*3 18.3 C 0 km/h
61 09-09-2010 12:07:01 18.5 C 8.23 g/m*3 18.5 C 0 km/h
62 09-09-2010 12:19:02 18.6 C 8.28 g/m*3 18.6 C 0 km/h
63 09-09-2010 12:31:02 18.6 C 8.12 g/m*3 18.6 C 0 km/h
64 09-09-2010 12:43:02 19 C 8.15 g/m*3 19 C 0 km/h
65 09-09-2010 12:55:02 18.5 C 8.07 g/m*3 18.5 C 0 km/h
66 09-09-2010 13:07:02 18.6 C 8.28 g/m*3 18.6 C 0 km/h
67 09-09-2010 13:19:02 18.7 C 8.17 g/m*3 18.7 C 0 km/h
68 09-09-2010 13:31:02 18.7 C 8.01 g/m*3 18.7 C 0 km/h
69 09-09-2010 13:43:02 19 C 8.15 g/m*3 19 C 0 km/h
70 09-09-2010 13:55:02 19 C 8.47 g/m*3 19 C 0 km/h
71 09-09-2010 14:07:02 18.6 C 8.12 g/m*3 18.6 C 0 km/h
72 09-09-2010 14:19:02 18.4 C 8.18 g/m*3 18.4 C 0 km/h
73 09-09-2010 14:31:02 18.8 C 8.86 g/m*3 18.8 C 0 km/h
74 09-09-2010 14:43:02 19.3 C 8.79 g/m*3 19.3 C 0 km/h
75 09-09-2010 14:55:02 19.8 C 9.05 g/m*3 19.8 C 0 km/h
Sensor: Nr:Datum:Temp:Abs-Feuchte:Windchill:Wind:
Aussen-T/F 76 09-09-2010 15:07:02 20.3 C 8.97 g/m*3 20.3 C 0 km/h
77 09-09-2010 15:19:02 20.3 C 8.97 g/m*3 20.3 C 0 km/h
78 09-09-2010 15:31:02 19.5 C 8.89 g/m*3 19.5 C 0 km/h
79 09-09-2010 15:43:02 18.7 C 9.29 g/m*3 18.7 C 0 km/h
80 09-09-2010 15:55:02 18.1 C 9.43 g/m*3 18.1 C 0 km/h
81 09-09-2010 16:07:01 17.7 C 9.51 g/m*3 17.7 C 0 km/h
82 09-09-2010 16:19:02 16.1 C 10.14 g/m*3 16.1 C 0 km/h
83 09-09-2010 16:31:01 16.1 C 10.42 g/m*3 16.1 C 0 km/h
84 09-09-2010 16:43:01 17.1 C 11.79 g/m*3 17.1 C 0 km/h
85 09-09-2010 16:55:02 18.5 C 12.82 g/m*3 18.5 C 0 km/h
86 09-09-2010 17:07:02 18.2 C 12.28 g/m*3 18.2 C 0 km/h
87 09-09-2010 17:19:02 18 C 12.13 g/m*3 18 C 0 km/h
88 09-09-2010 17:31:02 17.9 C 11.45 g/m*3 17.9 C 0 km/h
89 09-09-2010 17:43:02 17.8 C 11.08 g/m*3 17.8 C 0 km/h
90 09-09-2010 17:55:02 17.7 C 11.16 g/m*3 17.7 C 0 km/h
91 09-09-2010 18:07:02 17.7 C 11.32 g/m*3 17.7 C 0 km/h
92 09-09-2010 18:19:01 17.7 C 10.86 g/m*3 17.7 C 0 km/h
93 09-09-2010 18:31:02 17.7 C 10.41 g/m*3 17.7 C 0 km/h
94 09-09-2010 18:43:03 17.9 C 10.38 g/m*3 17.9 C 0 km/h
95 09-09-2010 18:55:02 17.5 C 9.39 g/m*3 17.5 C 0 km/h
96 09-09-2010 19:07:02 17.2 C 9.37 g/m*3 17.2 C 0 km/h
97 09-09-2010 19:19:01 16.8 C 9.44 g/m*3 16.8 C 0 km/h
98 09-09-2010 19:31:02 16.5 C 9.55 g/m*3 16.5 C 0 km/h
99 09-09-2010 19:43:02 16.2 C 9.52 g/m*3 16.2 C 0 km/h
100 09-09-2010 19:55:01 16 C 9.4 g/m*3 16 C 0 km/h
Sensor: Nr:Datum:Temp:Abs-Feuchte:Windchill:Wind:
Aussen-T/F 101 09-09-2010 20:07:02 15.9 C 9.48 g/m*3 15.9 C 0 km/h
102 09-09-2010 20:19:02 15.8 C 9.42 g/m*3 15.8 C 0 km/h
103 09-09-2010 20:31:01 15.4 C 9.72 g/m*3 15.4 C 0 km/h
104 09-09-2010 20:43:01 15 C 10 g/m*3 15 C 0 km/h
105 09-09-2010 20:55:01 14.9 C 10.2 g/m*3 14.9 C 0 km/h
106 09-09-2010 21:07:01 14.9 C 10.32 g/m*3 14.9 C 0 km/h
107 09-09-2010 21:19:02 14.9 C 10.32 g/m*3 14.9 C 0 km/h
108 09-09-2010 21:31:01 14.8 C 10.26 g/m*3 14.8 C 0 km/h
109 09-09-2010 21:43:01 14.7 C 10.2 g/m*3 14.7 C 0 km/h
110 09-09-2010 21:55:02 14.7 C 10.2 g/m*3 14.7 C 0 km/h
111 09-09-2010 22:07:02 14.7 C 10.2 g/m*3 14.7 C 0 km/h
112 09-09-2010 22:19:01 14.8 C 10.13 g/m*3 14.8 C 0 km/h
113 09-09-2010 22:31:01 14.8 C 10.26 g/m*3 14.8 C 0 km/h
114 09-09-2010 22:43:01 14.7 C 10.2 g/m*3 14.7 C 0 km/h
115 09-09-2010 22:56:02 14.7 C 10.07 g/m*3 14.7 C 0 km/h
116 09-09-2010 23:08:02 14.8 C 10.01 g/m*3 14.8 C 0 km/h
117 09-09-2010 23:20:03 15 C 9.75 g/m*3 15 C 0 km/h
118 09-09-2010 23:32:03 15 C 9.62 g/m*3 15 C 0 km/h
119 09-09-2010 23:44:03 15.1 C 9.68 g/m*3 15.1 C 0 km/h
120 09-09-2010 23:56:03 15 C 9.49 g/m*3 15 C 0 km/h
121 10-09-2010 00:08:03 14.9 C 9.81 g/m*3 14.9 C 0 km/h
122 10-09-2010 00:20:03 14.8 C 9.88 g/m*3 14.8 C 0 km/h
123 10-09-2010 00:32:03 14.6 C 10.01 g/m*3 14.6 C 0 km/h
124 10-09-2010 00:44:03 14.6 C 10.01 g/m*3 14.6 C 0 km/h
125 10-09-2010 00:56:03 14.4 C 9.89 g/m*3 14.4 C 0 km/h
Sensor: Nr:Datum:Temp:Abs-Feuchte:Windchill:Wind:
Aussen-T/F 126 10-09-2010 01:08:03 14.3 C 9.83 g/m*3 14.3 C 0 km/h
127 10-09-2010 01:20:03 14.1 C 9.71 g/m*3 14.1 C 0 km/h
128 10-09-2010 01:32:03 13.9 C 9.71 g/m*3 13.9 C 0 km/h
129 10-09-2010 01:44:03 13.8 C 9.77 g/m*3 13.8 C 0 km/h
130 10-09-2010 01:56:03 13.9 C 9.83 g/m*3 13.9 C 0 km/h
131 10-09-2010 02:08:03 13.8 C 9.89 g/m*3 13.8 C 0 km/h
132 10-09-2010 02:20:03 13.8 C 9.89 g/m*3 13.8 C 0 km/h
133 10-09-2010 02:32:03 13.9 C 10.07 g/m*3 13.9 C 0 km/h
134 10-09-2010 02:44:03 14 C 10.01 g/m*3 14 C 0 km/h
135 10-09-2010 02:56:03 14 C 9.89 g/m*3 14 C 0 km/h
136 10-09-2010 03:08:03 14 C 10.01 g/m*3 14 C 0 km/h
137 10-09-2010 03:20:03 14 C 10.01 g/m*3 14 C 0 km/h
138 10-09-2010 03:32:04 13.9 C 10.07 g/m*3 13.9 C 0 km/h
139 10-09-2010 03:44:04 13.8 C 10.13 g/m*3 13.8 C 0 km/h
140 10-09-2010 03:56:04 13.8 C 10.13 g/m*3 13.8 C 0 km/h
141 10-09-2010 04:08:04 13.9 C 10.31 g/m*3 13.9 C 0 km/h
142 10-09-2010 04:20:04 14 C 10.25 g/m*3 14 C 0 km/h
143 10-09-2010 04:32:04 13.9 C 10.31 g/m*3 13.9 C 0 km/h
144 10-09-2010 04:44:04 13.8 C 10.25 g/m*3 13.8 C 0 km/h
145 10-09-2010 04:56:04 13.6 C 10.12 g/m*3 13.6 C 0 km/h
146 10-09-2010 05:08:04 13.4 C 10 g/m*3 13.4 C 0 km/h
147 10-09-2010 05:20:04 13.2 C 9.99 g/m*3 13.2 C 0 km/h
148 10-09-2010 05:32:04 13.1 C 10.04 g/m*3 13.1 C 0 km/h
149 10-09-2010 05:44:04 12.8 C 9.97 g/m*3 12.8 C 0 km/h
150 10-09-2010 05:56:04 12.8 C 9.97 g/m*3 12.8 C 0 km/h
Sensor: Nr:Datum:Temp:Abs-Feuchte:Windchill:Wind:
Aussen-T/F 151 10-09-2010 06:08:04 13.2 C 10.33 g/m*3 13.2 C 0 km/h
152 10-09-2010 06:20:04 13 C 10.09 g/m*3 13 C 0 km/h
153 10-09-2010 06:32:04 13.1 C 10.27 g/m*3 13.1 C 0 km/h
154 10-09-2010 06:44:04 13.1 C 10.27 g/m*3 13.1 C 0 km/h
155 10-09-2010 06:56:04 13.2 C 10.22 g/m*3 13.2 C 0 km/h
156 10-09-2010 07:08:04 13.1 C 10.16 g/m*3 13.1 C 0 km/h
157 10-09-2010 07:20:04 13.2 C 9.99 g/m*3 13.2 C 0 km/h
158 10-09-2010 07:32:05 13.3 C 9.7 g/m*3 13.3 C 0 km/h
159 10-09-2010 07:44:05 13.2 C 9.64 g/m*3 13.2 C 0 km/h
160 10-09-2010 07:56:02 13.1 C 9.7 g/m*3 13.1 C 0 km/h
161 10-09-2010 08:08:02 13.1 C 9.81 g/m*3 13.1 C 0 km/h
162 10-09-2010 08:20:02 13.1 C 9.93 g/m*3 13.1 C 0 km/h
163 10-09-2010 08:32:02 13.2 C 9.99 g/m*3 13.2 C 0 km/h
164 10-09-2010 08:44:03 13.5 C 10.06 g/m*3 13.5 C 0 km/h
165 10-09-2010 08:56:02 13.7 C 9.95 g/m*3 13.7 C 0 km/h
166 10-09-2010 09:08:02 14 C 9.77 g/m*3 14 C 0 km/h
167 10-09-2010 09:20:02 14.4 C 9.64 g/m*3 14.4 C 0 km/h
168 10-09-2010 09:32:02 14.5 C 9.58 g/m*3 14.5 C 0 km/h
169 10-09-2010 09:44:02 14.9 C 9.43 g/m*3 14.9 C 0 km/h
170 10-09-2010 09:56:02 15.2 C 9.22 g/m*3 15.2 C 0 km/h
171 10-09-2010 10:08:02 15.5 C 9.39 g/m*3 15.5 C 0 km/h
172 10-09-2010 10:20:03 15.7 C 9.23 g/m*3 15.7 C 0 km/h
173 10-09-2010 10:32:02 16.2 C 9.38 g/m*3 16.2 C 0 km/h
174 10-09-2010 10:44:02 16.6 C 9.46 g/m*3 16.6 C 0 km/h
175 10-09-2010 10:56:02 16.8 C 9.29 g/m*3 16.8 C 0 km/h
Sensor: Nr:Datum:Temp:Abs-Feuchte:Windchill:Wind:
Aussen-T/F 176 10-09-2010 11:08:02 17.2 C 9.37 g/m*3 17.2 C 0 km/h
177 10-09-2010 11:20:02 17.7 C 9.51 g/m*3 17.7 C 0 km/h
178 10-09-2010 11:32:02 18.1 C 9.12 g/m*3 18.1 C 0 km/h
179 10-09-2010 11:44:02 18.1 C 8.96 g/m*3 18.1 C 0 km/h
180 10-09-2010 11:56:02 18.3 C 9.07 g/m*3 18.3 C 0 km/h
181 10-09-2010 12:08:01 18.6 C 9.07 g/m*3 18.6 C 0 km/h
182 10-09-2010 12:20:02 18.7 C 9.13 g/m*3 18.7 C 0 km/h
183 10-09-2010 12:32:02 18.4 C 9.12 g/m*3 18.4 C 0 km/h
184 10-09-2010 12:44:02 18.8 C 9.34 g/m*3 18.8 C 0 km/h
185 10-09-2010 12:56:02 19.2 C 9.23 g/m*3 19.2 C 0 km/h
186 10-09-2010 13:08:03 19.5 C 8.89 g/m*3 19.5 C 0 km/h
187 10-09-2010 13:20:02 19.4 C 8.84 g/m*3 19.4 C 0 km/h
188 10-09-2010 13:32:02 19 C 8.47 g/m*3 19 C 0 km/h
189 10-09-2010 13:44:02 19 C 8.47 g/m*3 19 C 0 km/h
190 10-09-2010 13:56:01 19 C 8.64 g/m*3 19 C 0 km/h
191 10-09-2010 14:08:02 19.3 C 8.79 g/m*3 19.3 C 0 km/h
192 10-09-2010 14:20:01 19.9 C 8.76 g/m*3 19.9 C 0 km/h
193 10-09-2010 14:32:01 20.4 C 8.67 g/m*3 20.4 C 0 km/h
194 10-09-2010 14:44:01 20.2 C 8.74 g/m*3 20.2 C 0 km/h
195 10-09-2010 14:56:01 19.9 C 8.76 g/m*3 19.9 C 0 km/h
196 10-09-2010 15:08:02 20 C 8.64 g/m*3 20 C 0 km/h
197 10-09-2010 15:20:02 20.6 C 8.95 g/m*3 20.6 C 0 km/h
198 10-09-2010 15:32:01 20.9 C 8.38 g/m*3 20.9 C 0 km/h
199 10-09-2010 15:44:01 21.2 C 8.34 g/m*3 21.2 C 0 km/h
200 10-09-2010 15:56:02 21.4 C 8.62 g/m*3 21.4 C 0 km/h
Sensor: Nr:Datum:Temp:Abs-Feuchte:Windchill:Wind:
Aussen-T/F 201 10-09-2010 16:08:01 21.2 C 8.34 g/m*3 21.2 C 0 km/h
202 10-09-2010 16:20:02 20.8 C 8.33 g/m*3 20.8 C 0 km/h
203 10-09-2010 16:32:01 21.1 C 8.48 g/m*3 21.1 C 0 km/h
204 10-09-2010 16:44:01 21.2 C 8.71 g/m*3 21.2 C 0 km/h
205 10-09-2010 16:56:02 21.2 C 8.34 g/m*3 21.2 C 0 km/h
206 10-09-2010 17:08:02 20.9 C 8.56 g/m*3 20.9 C 0 km/h
207 10-09-2010 17:20:02 20.5 C 8.9 g/m*3 20.5 C 0 km/h
208 10-09-2010 17:32:03 20.1 C 9.04 g/m*3 20.1 C 0 km/h
209 10-09-2010 17:44:03 19.8 C 9.39 g/m*3 19.8 C 0 km/h
210 10-09-2010 17:56:02 19.6 C 8.95 g/m*3 19.6 C 0 km/h
211 10-09-2010 18:08:02 19.4 C 9.18 g/m*3 19.4 C 0 km/h
212 10-09-2010 18:20:02 18.9 C 9.56 g/m*3 18.9 C 0 km/h
213 10-09-2010 18:32:02 17.8 C 10.17 g/m*3 17.8 C 0 km/h
214 10-09-2010 18:44:02 16.8 C 10.72 g/m*3 16.8 C 0 km/h
215 10-09-2010 18:56:02 16.4 C 11.03 g/m*3 16.4 C 0 km/h
216 10-09-2010 19:08:02 16.4 C 11.31 g/m*3 16.4 C 0 km/h
217 10-09-2010 19:20:02 16.8 C 11.72 g/m*3 16.8 C 0 km/h
218 10-09-2010 19:32:02 16.3 C 11.38 g/m*3 16.3 C 0 km/h
219 10-09-2010 19:44:02 16 C 11.31 g/m*3 16 C 0 km/h
220 10-09-2010 19:56:02 15.8 C 11.44 g/m*3 15.8 C 0 km/h
221 10-09-2010 20:08:03 15.8 C 11.58 g/m*3 15.8 C 0 km/h
222 10-09-2010 20:20:02 15.7 C 11.51 g/m*3 15.7 C 0 km/h
223 10-09-2010 20:32:03 15.6 C 11.57 g/m*3 15.6 C 0 km/h
224 10-09-2010 20:44:03 15.6 C 11.57 g/m*3 15.6 C 0 km/h
225 10-09-2010 20:56:02 15.7 C 11.64 g/m*3 15.7 C 0 km/h
Sensor: Nr:Datum:Temp:Abs-Feuchte:Windchill:Wind:
Aussen-T/F 226 10-09-2010 21:08:01 15.8 C 11.71 g/m*3 15.8 C 0 km/h
227 10-09-2010 21:20:02 15.8 C 11.71 g/m*3 15.8 C 0 km/h
228 10-09-2010 21:32:02 15.8 C 11.71 g/m*3 15.8 C 0 km/h
229 10-09-2010 21:44:02 15.8 C 11.71 g/m*3 15.8 C 0 km/h
230 10-09-2010 21:56:02 15.8 C 11.58 g/m*3 15.8 C 0 km/h
231 10-09-2010 22:08:01 15.8 C 11.58 g/m*3 15.8 C 0 km/h
232 10-09-2010 22:20:02 15.8 C 11.58 g/m*3 15.8 C 0 km/h
233 10-09-2010 22:32:01 15.7 C 11.51 g/m*3 15.7 C 0 km/h
234 10-09-2010 22:44:01 15.6 C 11.3 g/m*3 15.6 C 0 km/h
235 10-09-2010 22:57:03 15.5 C 11.24 g/m*3 15.5 C 0 km/h
236 10-09-2010 23:09:03 15.6 C 11.3 g/m*3 15.6 C 0 km/h
237 10-09-2010 23:21:03 15.5 C 11.24 g/m*3 15.5 C 0 km/h
238 10-09-2010 23:33:03 15.5 C 11.24 g/m*3 15.5 C 0 km/h
239 10-09-2010 23:45:03 15.4 C 11.17 g/m*3 15.4 C 0 km/h
240 10-09-2010 23:57:03 15.3 C 10.97 g/m*3 15.3 C 0 km/h
241 11-09-2010 00:09:03 15.2 C 10.9 g/m*3 15.2 C 0 km/h
242 11-09-2010 00:21:03 15.2 C 10.9 g/m*3 15.2 C 0 km/h
243 11-09-2010 00:33:03 15.1 C 10.84 g/m*3 15.1 C 0 km/h
244 11-09-2010 00:45:03 15.1 C 10.84 g/m*3 15.1 C 0 km/h
245 11-09-2010 00:57:03 15.1 C 10.84 g/m*3 15.1 C 0 km/h
246 11-09-2010 01:09:03 15.1 C 10.84 g/m*3 15.1 C 0 km/h
247 11-09-2010 01:21:03 15 C 10.77 g/m*3 15 C 0 km/h
248 11-09-2010 01:33:03 15 C 10.77 g/m*3 15 C 0 km/h
249 11-09-2010 01:45:04 15 C 10.77 g/m*3 15 C 0 km/h
250 11-09-2010 01:57:04 14.9 C 10.83 g/m*3 14.9 C 0 km/h
Sensor: Nr:Datum:Temp:Abs-Feuchte:Windchill:Wind:
Aussen-T/F 251 11-09-2010 02:09:04 14.9 C 10.83 g/m*3 14.9 C 0 km/h
252 11-09-2010 02:21:04 14.8 C 10.77 g/m*3 14.8 C 0 km/h
253 11-09-2010 02:33:04 14.7 C 10.58 g/m*3 14.7 C 0 km/h
254 11-09-2010 02:45:04 14.7 C 10.7 g/m*3 14.7 C 0 km/h
255 11-09-2010 02:57:04 14.6 C 10.76 g/m*3 14.6 C 0 km/h
256 11-09-2010 03:09:04 14.4 C 10.63 g/m*3 14.4 C 0 km/h
257 11-09-2010 03:21:04 14.3 C 10.57 g/m*3 14.3 C 0 km/h
258 11-09-2010 03:33:04 14.1 C 10.44 g/m*3 14.1 C 0 km/h
259 11-09-2010 03:45:04 14 C 10.37 g/m*3 14 C 0 km/h
260 11-09-2010 03:57:04 13.6 C 10.12 g/m*3 13.6 C 0 km/h
261 11-09-2010 04:09:04 13.5 C 10.06 g/m*3 13.5 C 0 km/h
262 11-09-2010 04:21:04 13.3 C 9.94 g/m*3 13.3 C 0 km/h
263 11-09-2010 04:33:04 13.1 C 9.81 g/m*3 13.1 C 0 km/h
264 11-09-2010 04:45:04 13 C 9.75 g/m*3 13 C 0 km/h
265 11-09-2010 04:57:04 12.8 C 9.74 g/m*3 12.8 C 0 km/h
266 11-09-2010 05:09:04 12.6 C 9.62 g/m*3 12.6 C 0 km/h
267 11-09-2010 05:21:04 12.5 C 9.68 g/m*3 12.5 C 0 km/h
268 11-09-2010 05:33:04 12.6 C 9.74 g/m*3 12.6 C 0 km/h
269 11-09-2010 05:45:05 12.7 C 9.91 g/m*3 12.7 C 0 km/h
270 11-09-2010 05:57:05 12.8 C 9.97 g/m*3 12.8 C 0 km/h
271 11-09-2010 06:09:05 13 C 10.09 g/m*3 13 C 0 km/h
272 11-09-2010 06:21:05 13.1 C 10.16 g/m*3 13.1 C 0 km/h
273 11-09-2010 06:33:05 12.8 C 9.97 g/m*3 12.8 C 0 km/h
274 11-09-2010 06:45:05 12.5 C 9.78 g/m*3 12.5 C 0 km/h
275 11-09-2010 06:57:05 12.3 C 9.56 g/m*3 12.3 C 0 km/h
Sensor: Nr:Datum:Temp:Abs-Feuchte:Windchill:Wind:
Aussen-T/F 276 11-09-2010 07:09:05 12.1 C 9.44 g/m*3 12.1 C 0 km/h
277 11-09-2010 07:21:05 12.1 C 9.44 g/m*3 12.1 C 0 km/h
278 11-09-2010 07:33:05 12.1 C 9.54 g/m*3 12.1 C 0 km/h
279 11-09-2010 07:45:05 12.1 C 9.54 g/m*3 12.1 C 0 km/h
280 11-09-2010 07:57:05 12.4 C 9.72 g/m*3 12.4 C 0 km/h
281 11-09-2010 08:09:05 12.7 C 10.02 g/m*3 12.7 C 0 km/h
282 11-09-2010 08:21:03 13 C 10.21 g/m*3 13 C 0 km/h
283 11-09-2010 08:33:02 13 C 10.21 g/m*3 13 C 0 km/h
284 11-09-2010 08:45:02 13.1 C 10.27 g/m*3 13.1 C 0 km/h
285 11-09-2010 08:57:02 13.4 C 10.46 g/m*3 13.4 C 0 km/h
286 11-09-2010 09:09:02 13.4 C 10.35 g/m*3 13.4 C 0 km/h
287 11-09-2010 09:21:02 13.5 C 10.41 g/m*3 13.5 C 0 km/h
288 11-09-2010 09:33:02 13.7 C 10.54 g/m*3 13.7 C 0 km/h
289 11-09-2010 09:45:01 13.9 C 10.67 g/m*3 13.9 C 0 km/h
290 11-09-2010 09:57:01 14.3 C 10.81 g/m*3 14.3 C 0 km/h
291 11-09-2010 10:09:02 14.7 C 11.08 g/m*3 14.7 C 0 km/h
292 11-09-2010 10:21:01 15 C 11.03 g/m*3 15 C 0 km/h
293 11-09-2010 10:33:01 15.6 C 11.3 g/m*3 15.6 C 0 km/h
294 11-09-2010 10:45:01 16.2 C 11.45 g/m*3 16.2 C 0 km/h
295 11-09-2010 10:57:01 16.8 C 11.72 g/m*3 16.8 C 0 km/h
296 11-09-2010 11:09:01 17.1 C 11.5 g/m*3 17.1 C 0 km/h
297 11-09-2010 11:21:02 17.5 C 11.18 g/m*3 17.5 C 0 km/h
298 11-09-2010 11:33:01 18.2 C 11.35 g/m*3 18.2 C 0 km/h
299 11-09-2010 11:45:03 19.1 C 11.31 g/m*3 19.1 C 0 km/h
300 11-09-2010 11:57:03 19.3 C 11.44 g/m*3 19.3 C 0 km/h
Sensor: Nr:Datum:Temp:Abs-Feuchte:Windchill:Wind:
Aussen-T/F 301 11-09-2010 12:09:02 19.2 C 9.89 g/m*3 19.2 C 0 km/h
302 11-09-2010 12:21:02 19.6 C 9.96 g/m*3 19.6 C 0 km/h
303 11-09-2010 12:33:02 19.9 C 9.45 g/m*3 19.9 C 0 km/h
304 11-09-2010 12:45:02 20.2 C 9.27 g/m*3 20.2 C 0 km/h
305 11-09-2010 12:57:02 20.6 C 9.31 g/m*3 20.6 C 0 km/h
306 11-09-2010 13:09:02 20.9 C 9.11 g/m*3 20.9 C 0 km/h
307 11-09-2010 13:21:02 21.3 C 8.76 g/m*3 21.3 C 0 km/h
308 11-09-2010 13:33:01 21.7 C 8.97 g/m*3 21.7 C 0 km/h
309 11-09-2010 13:45:02 22.2 C 8.44 g/m*3 22.2 C 0 km/h
310 11-09-2010 13:57:03 22.7 C 8.69 g/m*3 22.7 C 0 km/h
311 11-09-2010 14:09:01 23.3 C 8.15 g/m*3 23.3 C 0 km/h
312 11-09-2010 14:21:01 23.9 C 8.44 g/m*3 23.9 C 0 km/h
313 11-09-2010 14:33:02 24.3 C 8.19 g/m*3 24.3 C 0 km/h
314 11-09-2010 14:45:02 24.5 C 7.83 g/m*3 24.5 C 0 km/h
315 11-09-2010 14:57:02 25 C 8.06 g/m*3 25 C 0 km/h
316 11-09-2010 15:09:02 25.6 C 8.09 g/m*3 25.6 C 0 km/h
317 11-09-2010 15:21:02 25.7 C 7.9 g/m*3 25.7 C 0 km/h
318 11-09-2010 15:33:02 25.6 C 8.57 g/m*3 25.6 C 0 km/h
319 11-09-2010 15:45:02 26.5 C 7.51 g/m*3 26.5 C 0 km/h
320 11-09-2010 15:57:02 26.8 C 7.13 g/m*3 26.8 C 0 km/h
321 11-09-2010 16:09:02 25.7 C 7.66 g/m*3 25.7 C 0 km/h
322 11-09-2010 16:21:02 25.3 C 9.13 g/m*3 25.3 C 0 km/h
323 11-09-2010 16:33:02 26.5 C 8.01 g/m*3 26.5 C 0 km/h
324 11-09-2010 16:45:02 26.4 C 7.72 g/m*3 26.4 C 0 km/h
325 11-09-2010 16:57:02 27.8 C 8.34 g/m*3 27.8 C 0 km/h
Sensor: Nr:Datum:Temp:Abs-Feuchte:Windchill:Wind:
Aussen-T/F 326 11-09-2010 17:09:02 28 C 7.61 g/m*3 28 C 0 km/h
327 11-09-2010 17:21:02 27.3 C 7.85 g/m*3 27.3 C 0 km/h
328 11-09-2010 17:33:02 27.5 C 8.47 g/m*3 27.5 C 0 km/h
329 11-09-2010 17:45:02 27.6 C 8.78 g/m*3 27.6 C 0 km/h
330 11-09-2010 17:57:02 27.7 C 8.83 g/m*3 27.7 C 0 km/h
331 11-09-2010 18:09:02 27.5 C 9.26 g/m*3 27.5 C 0 km/h
332 11-09-2010 18:21:02 26.8 C 9.16 g/m*3 26.8 C 0 km/h
333 11-09-2010 18:33:01 26.3 C 8.91 g/m*3 26.3 C 0 km/h
334 11-09-2010 18:45:02 25.3 C 9.36 g/m*3 25.3 C 0 km/h
335 11-09-2010 18:57:02 24.4 C 9.57 g/m*3 24.4 C 0 km/h
336 11-09-2010 19:09:01 23.7 C 9.63 g/m*3 23.7 C 0 km/h
337 11-09-2010 19:21:02 22.6 C 9.64 g/m*3 22.6 C 0 km/h
338 11-09-2010 19:33:02 21.6 C 10.05 g/m*3 21.6 C 0 km/h
339 11-09-2010 19:45:02 20.7 C 9.72 g/m*3 20.7 C 0 km/h
340 11-09-2010 19:57:02 20.2 C 9.44 g/m*3 20.2 C 0 km/h
341 11-09-2010 20:09:02 20 C 9.33 g/m*3 20 C 0 km/h
342 11-09-2010 20:21:02 19.5 C 9.4 g/m*3 19.5 C 0 km/h
343 11-09-2010 20:33:02 19.3 C 9.45 g/m*3 19.3 C 0 km/h
344 11-09-2010 20:45:01 19.1 C 9.67 g/m*3 19.1 C 0 km/h
345 11-09-2010 20:57:01 18.8 C 9.66 g/m*3 18.8 C 0 km/h
346 11-09-2010 21:09:02 18.6 C 9.71 g/m*3 18.6 C 0 km/h
347 11-09-2010 21:21:01 18.4 C 9.91 g/m*3 18.4 C 0 km/h
348 11-09-2010 21:33:01 18.2 C 10.1 g/m*3 18.2 C 0 km/h
349 11-09-2010 21:45:01 17.7 C 10.11 g/m*3 17.7 C 0 km/h
350 11-09-2010 21:57:01 17.6 C 10.2 g/m*3 17.6 C 0 km/h
Sensor: Nr:Datum:Temp:Abs-Feuchte:Windchill:Wind:
Aussen-T/F 351 11-09-2010 22:09:02 17.6 C 10.2 g/m*3 17.6 C 0 km/h
352 11-09-2010 22:21:01 17.4 C 10.23 g/m*3 17.4 C 0 km/h
353 11-09-2010 22:34:03 17.2 C 10.1 g/m*3 17.2 C 0 km/h
354 11-09-2010 22:46:03 16.9 C 10.36 g/m*3 16.9 C 0 km/h
355 11-09-2010 22:58:03 16.9 C 10.5 g/m*3 16.9 C 0 km/h
356 11-09-2010 23:10:03 17 C 10.42 g/m*3 17 C 0 km/h
357 11-09-2010 23:22:03 16.6 C 10.45 g/m*3 16.6 C 0 km/h
358 11-09-2010 23:34:03 16.5 C 10.39 g/m*3 16.5 C 0 km/h
359 11-09-2010 23:46:03 16.4 C 10.33 g/m*3 16.4 C 0 km/h
360 11-09-2010 23:58:03 16.3 C 10.41 g/m*3 16.3 C 0 km/h
361 12-09-2010 00:10:03 16.2 C 10.48 g/m*3 16.2 C 0 km/h
362 12-09-2010 00:22:03 16.2 C 10.48 g/m*3 16.2 C 0 km/h
363 12-09-2010 00:34:03 16.1 C 10.42 g/m*3 16.1 C 0 km/h
364 12-09-2010 00:46:03 16 C 10.35 g/m*3 16 C 0 km/h
365 12-09-2010 00:58:03 15.8 C 10.36 g/m*3 15.8 C 0 km/h
366 12-09-2010 01:10:03 15.6 C 10.37 g/m*3 15.6 C 0 km/h
367 12-09-2010 01:22:04 15.5 C 10.31 g/m*3 15.5 C 0 km/h
368 12-09-2010 01:34:04 15.2 C 10.25 g/m*3 15.2 C 0 km/h
369 12-09-2010 01:46:04 15.2 C 10.38 g/m*3 15.2 C 0 km/h
370 12-09-2010 01:58:04 15.2 C 10.38 g/m*3 15.2 C 0 km/h
371 12-09-2010 02:10:04 15 C 10.26 g/m*3 15 C 0 km/h
372 12-09-2010 02:22:04 15 C 10.39 g/m*3 15 C 0 km/h
373 12-09-2010 02:34:04 14.9 C 10.45 g/m*3 14.9 C 0 km/h
374 12-09-2010 02:46:04 14.8 C 10.51 g/m*3 14.8 C 0 km/h
375 12-09-2010 02:58:04 14.7 C 10.32 g/m*3 14.7 C 0 km/h
Sensor: Nr:Datum:Temp:Abs-Feuchte:Windchill:Wind:
Aussen-T/F 376 12-09-2010 03:10:04 14.7 C 10.32 g/m*3 14.7 C 0 km/h
377 12-09-2010 03:22:04 14.6 C 10.26 g/m*3 14.6 C 0 km/h
378 12-09-2010 03:34:04 14.4 C 10.14 g/m*3 14.4 C 0 km/h
379 12-09-2010 03:46:04 14.3 C 10.07 g/m*3 14.3 C 0 km/h
380 12-09-2010 03:58:04 14.3 C 10.2 g/m*3 14.3 C 0 km/h
381 12-09-2010 04:10:04 14.2 C 10.14 g/m*3 14.2 C 0 km/h
382 12-09-2010 04:22:04 14.1 C 10.07 g/m*3 14.1 C 0 km/h
383 12-09-2010 04:34:05 14.1 C 10.07 g/m*3 14.1 C 0 km/h
384 12-09-2010 04:46:05 14.1 C 10.07 g/m*3 14.1 C 0 km/h
385 12-09-2010 04:58:05 14 C 10.01 g/m*3 14 C 0 km/h
386 12-09-2010 05:10:05 13.9 C 10.07 g/m*3 13.9 C 0 km/h
387 12-09-2010 05:22:05 13.7 C 9.95 g/m*3 13.7 C 0 km/h
388 12-09-2010 05:34:05 13.8 C 10.01 g/m*3 13.8 C 0 km/h
389 12-09-2010 05:46:05 13.7 C 9.95 g/m*3 13.7 C 0 km/h
390 12-09-2010 05:58:05 13.7 C 9.95 g/m*3 13.7 C 0 km/h
391 12-09-2010 06:10:05 13.7 C 9.95 g/m*3 13.7 C 0 km/h
392 12-09-2010 06:22:05 13.5 C 9.94 g/m*3 13.5 C 0 km/h
393 12-09-2010 06:34:05 13.5 C 9.94 g/m*3 13.5 C 0 km/h
394 12-09-2010 06:46:05 13.5 C 9.94 g/m*3 13.5 C 0 km/h
395 12-09-2010 06:58:05 13.4 C 9.88 g/m*3 13.4 C 0 km/h
396 12-09-2010 07:10:05 13.5 C 9.94 g/m*3 13.5 C 0 km/h
397 12-09-2010 07:22:05 13.5 C 10.06 g/m*3 13.5 C 0 km/h
398 12-09-2010 07:34:05 13.6 C 10.12 g/m*3 13.6 C 0 km/h
399 12-09-2010 07:46:02 13.8 C 10.25 g/m*3 13.8 C 0 km/h
400 12-09-2010 07:58:02 14.1 C 10.32 g/m*3 14.1 C 0 km/h
Sensor: Nr:Datum:Temp:Abs-Feuchte:Windchill:Wind:
Aussen-T/F 401 12-09-2010 08:10:02 14.1 C 10.32 g/m*3 14.1 C 0 km/h
402 12-09-2010 08:22:01 14.4 C 10.38 g/m*3 14.4 C 0 km/h
403 12-09-2010 08:34:02 14.5 C 10.32 g/m*3 14.5 C 0 km/h
404 12-09-2010 08:46:02 14 C 10.13 g/m*3 14 C 0 km/h
405 12-09-2010 08:58:02 14.3 C 10.32 g/m*3 14.3 C 0 km/h
406 12-09-2010 09:10:02 14.8 C 10.64 g/m*3 14.8 C 0 km/h
407 12-09-2010 09:22:02 14.8 C 10.39 g/m*3 14.8 C 0 km/h
408 12-09-2010 09:34:02 14.8 C 10.51 g/m*3 14.8 C 0 km/h
409 12-09-2010 09:46:02 15 C 10.51 g/m*3 15 C 0 km/h
410 12-09-2010 09:58:02 14.8 C 10.51 g/m*3 14.8 C 0 km/h
411 12-09-2010 10:10:02 15.3 C 10.84 g/m*3 15.3 C 0 km/h
412 12-09-2010 10:22:03 15.9 C 11.1 g/m*3 15.9 C 0 km/h
413 12-09-2010 10:34:02 16.8 C 11.29 g/m*3 16.8 C 0 km/h
414 12-09-2010 10:46:02 18 C 11.37 g/m*3 18 C 0 km/h
415 12-09-2010 10:58:02 18.7 C 11.05 g/m*3 18.7 C 0 km/h
416 12-09-2010 11:10:02 19.5 C 10.41 g/m*3 19.5 C 0 km/h
417 12-09-2010 11:22:02 20.2 C 10.67 g/m*3 20.2 C 0 km/h
418 12-09-2010 11:34:02 20.1 C 10.6 g/m*3 20.1 C 0 km/h
419 12-09-2010 11:46:02 20 C 10.89 g/m*3 20 C 0 km/h
420 12-09-2010 11:58:02 20.3 C 10.9 g/m*3 20.3 C 0 km/h
421 12-09-2010 12:10:01 20.5 C 10.85 g/m*3 20.5 C 0 km/h
422 12-09-2010 12:22:02 20.9 C 11.11 g/m*3 20.9 C 0 km/h
423 12-09-2010 12:34:01 21.4 C 11.06 g/m*3 21.4 C 0 km/h
424 12-09-2010 12:46:01 22.4 C 10.33 g/m*3 22.4 C 0 km/h
425 12-09-2010 12:58:02 22.9 C 10.22 g/m*3 22.9 C 0 km/h
Sensor: Nr:Datum:Temp:Abs-Feuchte:Windchill:Wind:
Aussen-T/F 426 12-09-2010 13:10:01 23.1 C 10.34 g/m*3 23.1 C 0 km/h
427 12-09-2010 13:22:01 23.7 C 10.48 g/m*3 23.7 C 0 km/h
428 12-09-2010 13:34:02 24.3 C 9.74 g/m*3 24.3 C 0 km/h
429 12-09-2010 13:46:02 25 C 8.98 g/m*3 25 C 0 km/h
430 12-09-2010 13:58:02 25.9 C 9.44 g/m*3 25.9 C 0 km/h
431 12-09-2010 14:10:02 25.7 C 9.34 g/m*3 25.7 C 0 km/h
432 12-09-2010 14:22:01 25 C 8.06 g/m*3 25 C 0 km/h
433 12-09-2010 14:34:02 24.7 C 8.15 g/m*3 24.7 C 0 km/h
434 12-09-2010 14:46:02 23.1 C 9.72 g/m*3 23.1 C 0 km/h
435 12-09-2010 14:58:02 20.8 C 10.14 g/m*3 20.8 C 0 km/h
436 12-09-2010 15:10:02 19.5 C 9.23 g/m*3 19.5 C 0 km/h
437 12-09-2010 15:22:02 19.1 C 8.69 g/m*3 19.1 C 0 km/h
438 12-09-2010 15:34:02 19.4 C 8.84 g/m*3 19.4 C 0 km/h
439 12-09-2010 15:46:02 19.4 C 8.84 g/m*3 19.4 C 0 km/h
440 12-09-2010 15:58:02 19.2 C 8.74 g/m*3 19.2 C 0 km/h
441 12-09-2010 16:10:02 17.9 C 8.86 g/m*3 17.9 C 0 km/h
442 12-09-2010 16:22:02 18.1 C 9.12 g/m*3 18.1 C 0 km/h
443 12-09-2010 16:34:02 18.1 C 9.27 g/m*3 18.1 C 0 km/h
444 12-09-2010 16:46:02 17.6 C 9.3 g/m*3 17.6 C 0 km/h
445 12-09-2010 16:58:02 17.2 C 9.37 g/m*3 17.2 C 0 km/h
446 12-09-2010 17:10:02 17.2 C 9.52 g/m*3 17.2 C 0 km/h
447 12-09-2010 17:22:02 16.6 C 9.04 g/m*3 16.6 C 0 km/h
448 12-09-2010 17:34:01 16.1 C 9.46 g/m*3 16.1 C 0 km/h
449 12-09-2010 17:46:02 15.6 C 9.97 g/m*3 15.6 C 0 km/h
450 12-09-2010 17:58:02 15.5 C 10.31 g/m*3 15.5 C 0 km/h
Sensor: Nr:Datum:Temp:Abs-Feuchte:Windchill:Wind:
Aussen-T/F 451 12-09-2010 18:10:01 15.2 C 10.25 g/m*3 15.2 C 0 km/h
452 12-09-2010 18:22:02 15.2 C 10.51 g/m*3 15.2 C 0 km/h
453 12-09-2010 18:34:02 14.9 C 10.58 g/m*3 14.9 C 0 km/h
454 12-09-2010 18:46:02 14.7 C 10.7 g/m*3 14.7 C 0 km/h
455 12-09-2010 18:58:02 14.6 C 10.89 g/m*3 14.6 C 0 km/h
456 12-09-2010 19:10:02 14.5 C 10.82 g/m*3 14.5 C 0 km/h
457 12-09-2010 19:22:02 14.3 C 10.69 g/m*3 14.3 C 0 km/h
458 12-09-2010 19:34:02 14.1 C 10.68 g/m*3 14.1 C 0 km/h
459 12-09-2010 19:46:01 14.3 C 10.93 g/m*3 14.3 C 0 km/h
460 12-09-2010 19:58:01 14.1 C 10.8 g/m*3 14.1 C 0 km/h
461 12-09-2010 20:10:02 14 C 10.74 g/m*3 14 C 0 km/h
462 12-09-2010 20:22:01 13.9 C 10.79 g/m*3 13.9 C 0 km/h
463 12-09-2010 20:34:01 13.8 C 10.84 g/m*3 13.8 C 0 km/h
464 12-09-2010 20:46:01 13.7 C 10.78 g/m*3 13.7 C 0 km/h
465 12-09-2010 20:58:01 13.7 C 10.89 g/m*3 13.7 C 0 km/h
466 12-09-2010 21:10:02 13.6 C 10.83 g/m*3 13.6 C 0 km/h
467 12-09-2010 21:22:01 13.7 C 10.89 g/m*3 13.7 C 0 km/h
468 12-09-2010 21:34:01 13.7 C 10.89 g/m*3 13.7 C 0 km/h
469 12-09-2010 21:46:01 13.9 C 11.15 g/m*3 13.9 C 0 km/h
470 12-09-2010 21:58:01 14 C 11.1 g/m*3 14 C 0 km/h
471 12-09-2010 22:10:02 13.9 C 11.15 g/m*3 13.9 C 0 km/h
472 12-09-2010 22:22:01 13.9 C 11.15 g/m*3 13.9 C 0 km/h
473 12-09-2010 22:34:02 13.8 C 11.08 g/m*3 13.8 C 0 km/h
474 12-09-2010 22:46:02 13.7 C 11.01 g/m*3 13.7 C 0 km/h
475 12-09-2010 22:58:02 13.6 C 10.95 g/m*3 13.6 C 0 km/h
Sensor: Nr:Datum:Temp:Abs-Feuchte:Windchill:Wind:
Aussen-T/F 476 12-09-2010 23:10:01 13.5 C 10.88 g/m*3 13.5 C 0 km/h
477 12-09-2010 23:22:02 13.5 C 10.88 g/m*3 13.5 C 0 km/h
478 12-09-2010 23:34:02 13.5 C 10.88 g/m*3 13.5 C 0 km/h
479 12-09-2010 23:46:02 13.7 C 11.01 g/m*3 13.7 C 0 km/h
480 12-09-2010 23:58:02 13.7 C 11.01 g/m*3 13.7 C 0 km/h
481 13-09-2010 00:10:03 13.7 C 11.01 g/m*3 13.7 C 0 km/h
482 13-09-2010 00:22:02 13.6 C 10.95 g/m*3 13.6 C 0 km/h
483 13-09-2010 00:34:02 13.7 C 11.01 g/m*3 13.7 C 0 km/h
484 13-09-2010 00:46:02 13.7 C 11.01 g/m*3 13.7 C 0 km/h
485 13-09-2010 00:58:02 13.7 C 11.01 g/m*3 13.7 C 0 km/h
486 13-09-2010 01:10:02 13.6 C 10.95 g/m*3 13.6 C 0 km/h
487 13-09-2010 01:22:03 13.7 C 11.01 g/m*3 13.7 C 0 km/h
488 13-09-2010 01:34:02 13.8 C 11.08 g/m*3 13.8 C 0 km/h
489 13-09-2010 01:46:02 13.7 C 11.01 g/m*3 13.7 C 0 km/h
490 13-09-2010 01:58:02 13.7 C 11.01 g/m*3 13.7 C 0 km/h
491 13-09-2010 02:10:02 13.7 C 11.01 g/m*3 13.7 C 0 km/h
492 13-09-2010 02:22:02 13.5 C 10.88 g/m*3 13.5 C 0 km/h
493 13-09-2010 02:34:02 13.4 C 10.81 g/m*3 13.4 C 0 km/h
494 13-09-2010 02:46:02 13.4 C 10.81 g/m*3 13.4 C 0 km/h
495 13-09-2010 02:58:02 13.6 C 10.95 g/m*3 13.6 C 0 km/h
496 13-09-2010 03:10:01 13.5 C 10.88 g/m*3 13.5 C 0 km/h
497 13-09-2010 03:22:01 13.3 C 10.63 g/m*3 13.3 C 0 km/h
498 13-09-2010 03:34:02 13.2 C 10.56 g/m*3 13.2 C 0 km/h
499 13-09-2010 03:46:02 13.2 C 10.45 g/m*3 13.2 C 0 km/h
500 13-09-2010 03:58:02 13.1 C 10.38 g/m*3 13.1 C 0 km/h
Sensor: Nr:Datum:Temp:Abs-Feuchte:Windchill:Wind:
Aussen-T/F 501 13-09-2010 04:10:01 13 C 10.21 g/m*3 13 C 0 km/h
502 13-09-2010 04:22:02 12.8 C 10.19 g/m*3 12.8 C 0 km/h
503 13-09-2010 04:34:01 12.9 C 10.26 g/m*3 12.9 C 0 km/h
504 13-09-2010 04:46:01 13.1 C 10.16 g/m*3 13.1 C 0 km/h
505 13-09-2010 04:58:02 13.2 C 10.22 g/m*3 13.2 C 0 km/h
506 13-09-2010 05:10:01 13.3 C 10.05 g/m*3 13.3 C 0 km/h
507 13-09-2010 05:22:01 13.3 C 9.82 g/m*3 13.3 C 0 km/h
508 13-09-2010 05:34:02 13.2 C 9.64 g/m*3 13.2 C 0 km/h
509 13-09-2010 05:46:01 13.2 C 9.64 g/m*3 13.2 C 0 km/h
510 13-09-2010 05:58:01 13.3 C 9.7 g/m*3 13.3 C 0 km/h
511 13-09-2010 06:10:02 13.4 C 9.76 g/m*3 13.4 C 0 km/h
512 13-09-2010 06:22:01 13.4 C 9.65 g/m*3 13.4 C 0 km/h
513 13-09-2010 06:34:01 13.3 C 9.59 g/m*3 13.3 C 0 km/h
514 13-09-2010 06:46:01 13.2 C 9.42 g/m*3 13.2 C 0 km/h
515 13-09-2010 06:58:01 13.2 C 9.42 g/m*3 13.2 C 0 km/h
516 13-09-2010 07:10:02 13 C 9.19 g/m*3 13 C 0 km/h
517 13-09-2010 07:22:01 13 C 9.3 g/m*3 13 C 0 km/h
518 13-09-2010 07:34:01 12.7 C 9.13 g/m*3 12.7 C 0 km/h
519 13-09-2010 07:46:01 12.5 C 9.13 g/m*3 12.5 C 0 km/h
520 13-09-2010 07:58:01 12.4 C 9.18 g/m*3 12.4 C 0 km/h
521 13-09-2010 08:10:01 12.5 C 9.35 g/m*3 12.5 C 0 km/h
522 13-09-2010 08:22:01 13 C 9.64 g/m*3 13 C 0 km/h
523 13-09-2010 08:34:01 13.1 C 9.7 g/m*3 13.1 C 0 km/h
524 13-09-2010 08:46:02 13.2 C 9.64 g/m*3 13.2 C 0 km/h
525 13-09-2010 08:58:02 13.4 C 9.76 g/m*3 13.4 C 0 km/h
Sensor: Nr:Datum:Temp:Abs-Feuchte:Windchill:Wind:
Aussen-T/F 526 13-09-2010 09:10:01 13.5 C 9.71 g/m*3 13.5 C 0 km/h
527 13-09-2010 09:22:02 13.7 C 9.71 g/m*3 13.7 C 0 km/h
528 13-09-2010 09:34:01 14 C 9.41 g/m*3 14 C 0 km/h
529 13-09-2010 09:46:02 14.2 C 9.28 g/m*3 14.2 C 0 km/h
530 13-09-2010 09:58:02 14.5 C 9.2 g/m*3 14.5 C 0 km/h
531 13-09-2010 10:10:01 14.8 C 9.25 g/m*3 14.8 C 0 km/h
532 13-09-2010 10:22:01 15 C 9.1 g/m*3 15 C 0 km/h
533 13-09-2010 10:34:02 15.3 C 9.14 g/m*3 15.3 C 0 km/h
534 13-09-2010 10:46:01 15.6 C 8.91 g/m*3 15.6 C 0 km/h
535 13-09-2010 10:58:01 15.9 C 8.8 g/m*3 15.9 C 0 km/h
536 13-09-2010 11:10:01 16 C 8.58 g/m*3 16 C 0 km/h
537 13-09-2010 11:22:01 16.4 C 8.65 g/m*3 16.4 C 0 km/h
538 13-09-2010 11:34:02 16.3 C 8.74 g/m*3 16.3 C 0 km/h
539 13-09-2010 11:46:01 17.1 C 8.59 g/m*3 17.1 C 0 km/h
540 13-09-2010 11:58:01 16.7 C 8.24 g/m*3 16.7 C 0 km/h
541 13-09-2010 12:10:02 16.4 C 8.23 g/m*3 16.4 C 0 km/h
542 13-09-2010 12:22:01 16.9 C 8.2 g/m*3 16.9 C 0 km/h
543 13-09-2010 12:34:01 17.6 C 7.8 g/m*3 17.6 C 0 km/h
544 13-09-2010 12:46:01 17.6 C 7.5 g/m*3 17.6 C 0 km/h
545 13-09-2010 12:58:01 17.7 C 7.85 g/m*3 17.7 C 0 km/h
546 13-09-2010 13:10:01 18 C 7.37 g/m*3 18 C 0 km/h
547 13-09-2010 13:22:01 18.9 C 7.78 g/m*3 18.9 C 0 km/h
548 13-09-2010 13:34:01 18.9 C 7.45 g/m*3 18.9 C 0 km/h
549 13-09-2010 13:46:01 18.7 C 7.2 g/m*3 18.7 C 0 km/h
550 13-09-2010 13:58:01 20.2 C 7.87 g/m*3 20.2 C 0 km/h
Sensor: Nr:Datum:Temp:Abs-Feuchte:Windchill:Wind:
Aussen-T/F 551 13-09-2010 14:10:01 19.9 C 7.22 g/m*3 19.9 C 0 km/h
552 13-09-2010 14:22:02 19.5 C 6.55 g/m*3 19.5 C 0 km/h
553 13-09-2010 14:34:01 19.6 C 6.75 g/m*3 19.6 C 0 km/h
554 13-09-2010 14:46:02 20.6 C 7.34 g/m*3 20.6 C 0 km/h
555 13-09-2010 14:58:02 21.3 C 6.9 g/m*3 21.3 C 0 km/h
556 13-09-2010 15:10:01 20.9 C 6.74 g/m*3 20.9 C 0 km/h
557 13-09-2010 15:22:01 21.3 C 6.9 g/m*3 21.3 C 0 km/h
558 13-09-2010 15:34:01 21.2 C 6.67 g/m*3 21.2 C 0 km/h
559 13-09-2010 15:46:01 20.6 C 7.16 g/m*3 20.6 C 0 km/h
560 13-09-2010 15:58:01 20 C 7.95 g/m*3 20 C 0 km/h
561 13-09-2010 16:10:01 20.8 C 7.97 g/m*3 20.8 C 0 km/h
562 13-09-2010 16:22:02 21.4 C 6.37 g/m*3 21.4 C 0 km/h
563 13-09-2010 16:34:01 21.4 C 7.5 g/m*3 21.4 C 0 km/h
564 13-09-2010 16:46:02 21.8 C 6.52 g/m*3 21.8 C 0 km/h
565 13-09-2010 16:58:02 22.4 C 6.16 g/m*3 22.4 C 0 km/h
566 13-09-2010 17:10:01 22.3 C 7.11 g/m*3 22.3 C 0 km/h
567 13-09-2010 17:22:01 20.5 C 7.65 g/m*3 20.5 C 0 km/h
568 13-09-2010 17:34:01 20.2 C 7.87 g/m*3 20.2 C 0 km/h
569 13-09-2010 17:46:01 19.8 C 8.37 g/m*3 19.8 C 0 km/h
570 13-09-2010 17:58:02 19.6 C 8.61 g/m*3 19.6 C 0 km/h
571 13-09-2010 18:10:02 18.9 C 8.75 g/m*3 18.9 C 0 km/h
572 13-09-2010 18:22:02 18.4 C 8.65 g/m*3 18.4 C 0 km/h
573 13-09-2010 18:34:01 18.2 C 8.55 g/m*3 18.2 C 0 km/h
574 13-09-2010 18:46:02 17.9 C 8.55 g/m*3 17.9 C 0 km/h
575 13-09-2010 18:58:02 17.7 C 8.6 g/m*3 17.7 C 0 km/h
Sensor: Nr:Datum:Temp:Abs-Feuchte:Windchill:Wind:
Aussen-T/F 576 13-09-2010 19:10:01 17.7 C 8.6 g/m*3 17.7 C 0 km/h
577 13-09-2010 19:22:02 17.5 C 8.5 g/m*3 17.5 C 0 km/h
578 13-09-2010 19:34:01 17 C 8.68 g/m*3 17 C 0 km/h
579 13-09-2010 19:46:02 16.4 C 8.51 g/m*3 16.4 C 0 km/h
580 13-09-2010 19:58:02 16 C 8.45 g/m*3 16 C 0 km/h
581 13-09-2010 20:10:01 15.6 C 8.64 g/m*3 15.6 C 0 km/h
582 13-09-2010 20:22:01 15.4 C 8.8 g/m*3 15.4 C 0 km/h
583 13-09-2010 20:34:01 15.2 C 8.96 g/m*3 15.2 C 0 km/h
584 13-09-2010 20:46:01 15.1 C 9.03 g/m*3 15.1 C 0 km/h
585 13-09-2010 20:58:02 14.9 C 9.05 g/m*3 14.9 C 0 km/h
586 13-09-2010 21:10:01 14.7 C 8.94 g/m*3 14.7 C 0 km/h
587 13-09-2010 21:22:01 14.6 C 9.01 g/m*3 14.6 C 0 km/h
588 13-09-2010 21:34:02 14.5 C 8.95 g/m*3 14.5 C 0 km/h
589 13-09-2010 21:46:01 14.4 C 8.9 g/m*3 14.4 C 0 km/h
590 13-09-2010 21:58:01 14.4 C 9.02 g/m*3 14.4 C 0 km/h
591 13-09-2010 22:10:01 14.1 C 8.86 g/m*3 14.1 C 0 km/h
592 13-09-2010 22:23:05 13.8 C 8.82 g/m*3 13.8 C 0 km/h
593 13-09-2010 22:35:05 13.7 C 8.88 g/m*3 13.7 C 0 km/h
594 13-09-2010 22:47:05 13.5 C 8.89 g/m*3 13.5 C 0 km/h
595 13-09-2010 22:59:05 13.4 C 8.83 g/m*3 13.4 C 0 km/h
596 13-09-2010 23:11:05 13.3 C 8.78 g/m*3 13.3 C 0 km/h
597 13-09-2010 23:23:05 13.3 C 9.01 g/m*3 13.3 C 0 km/h
598 13-09-2010 23:35:05 13.1 C 8.9 g/m*3 13.1 C 0 km/h
599 13-09-2010 23:47:05 13 C 8.73 g/m*3 13 C 0 km/h
600 13-09-2010 23:59:05 13 C 8.85 g/m*3 13 C 0 km/h
Sensor: Nr:Datum:Temp:Abs-Feuchte:Windchill:Wind:
Aussen-T/F 601 14-09-2010 00:11:05 13 C 8.96 g/m*3 13 C 0 km/h
602 14-09-2010 00:23:05 12.8 C 9.18 g/m*3 12.8 C 0 km/h
603 14-09-2010 00:35:05 12.8 C 9.3 g/m*3 12.8 C 0 km/h
604 14-09-2010 00:47:05 12.8 C 9.3 g/m*3 12.8 C 0 km/h
605 14-09-2010 00:59:05 12.7 C 9.24 g/m*3 12.7 C 0 km/h
606 14-09-2010 01:11:05 12.6 C 9.18 g/m*3 12.6 C 0 km/h
607 14-09-2010 01:23:05 12.7 C 9.24 g/m*3 12.7 C 0 km/h
608 14-09-2010 01:35:05 12.8 C 9.3 g/m*3 12.8 C 0 km/h
609 14-09-2010 01:47:05 12.9 C 9.35 g/m*3 12.9 C 0 km/h
610 14-09-2010 01:59:05 13 C 9.3 g/m*3 13 C 0 km/h
611 14-09-2010 02:11:05 13 C 9.3 g/m*3 13 C 0 km/h
612 14-09-2010 02:23:05 13 C 9.3 g/m*3 13 C 0 km/h
613 14-09-2010 02:35:06 13.1 C 9.36 g/m*3 13.1 C 0 km/h
614 14-09-2010 02:47:06 13.2 C 9.42 g/m*3 13.2 C 0 km/h
615 14-09-2010 02:59:06 13.2 C 9.3 g/m*3 13.2 C 0 km/h
616 14-09-2010 03:11:06 13.4 C 9.18 g/m*3 13.4 C 0 km/h
617 14-09-2010 03:23:06 13.4 C 9.18 g/m*3 13.4 C 0 km/h
618 14-09-2010 03:35:06 13.3 C 9.24 g/m*3 13.3 C 0 km/h
619 14-09-2010 03:47:06 13.3 C 9.24 g/m*3 13.3 C 0 km/h
620 14-09-2010 03:59:06 13.4 C 9.3 g/m*3 13.4 C 0 km/h
621 14-09-2010 04:11:06 13.2 C 9.19 g/m*3 13.2 C 0 km/h
622 14-09-2010 04:23:06 13 C 9.3 g/m*3 13 C 0 km/h
623 14-09-2010 04:35:06 12.8 C 9.41 g/m*3 12.8 C 0 km/h
624 14-09-2010 04:47:06 12.9 C 9.58 g/m*3 12.9 C 0 km/h
625 14-09-2010 04:59:06 12.8 C 9.63 g/m*3 12.8 C 0 km/h
Sensor: Nr:Datum:Temp:Abs-Feuchte:Windchill:Wind:
Aussen-T/F 626 14-09-2010 05:11:06 12.9 C 9.81 g/m*3 12.9 C 0 km/h
627 14-09-2010 05:23:06 12.9 C 9.81 g/m*3 12.9 C 0 km/h
628 14-09-2010 05:35:06 13 C 9.87 g/m*3 13 C 0 km/h
629 14-09-2010 05:47:06 13 C 9.87 g/m*3 13 C 0 km/h
630 14-09-2010 05:59:06 13 C 9.87 g/m*3 13 C 0 km/h
631 14-09-2010 06:11:06 13.3 C 10.05 g/m*3 13.3 C 0 km/h
632 14-09-2010 06:23:06 13.5 C 9.83 g/m*3 13.5 C 0 km/h
633 14-09-2010 06:35:06 13.8 C 9.06 g/m*3 13.8 C 0 km/h
634 14-09-2010 06:47:06 14.5 C 8.83 g/m*3 14.5 C 0 km/h
635 14-09-2010 06:59:07 14.4 C 8.53 g/m*3 14.4 C 0 km/h
636 14-09-2010 07:11:07 14.4 C 8.53 g/m*3 14.4 C 0 km/h
637 14-09-2010 07:23:07 14.4 C 8.65 g/m*3 14.4 C 0 km/h
638 14-09-2010 07:35:04 14.3 C 8.85 g/m*3 14.3 C 0 km/h
639 14-09-2010 07:47:02 13.6 C 9.18 g/m*3 13.6 C 0 km/h
640 14-09-2010 07:59:02 13.6 C 9.42 g/m*3 13.6 C 0 km/h
641 14-09-2010 08:11:01 13.7 C 9.47 g/m*3 13.7 C 0 km/h
642 14-09-2010 08:23:02 13.7 C 9.47 g/m*3 13.7 C 0 km/h
643 14-09-2010 08:35:02 14.1 C 9.34 g/m*3 14.1 C 0 km/h
644 14-09-2010 08:47:02 14.4 C 9.15 g/m*3 14.4 C 0 km/h
645 14-09-2010 08:59:02 14.6 C 9.13 g/m*3 14.6 C 0 km/h
646 14-09-2010 09:11:01 14.7 C 9.07 g/m*3 14.7 C 0 km/h
647 14-09-2010 09:23:02 14.8 C 9.12 g/m*3 14.8 C 0 km/h
648 14-09-2010 09:35:02 15.1 C 9.03 g/m*3 15.1 C 0 km/h
649 14-09-2010 09:47:01 15.6 C 9.04 g/m*3 15.6 C 0 km/h
650 14-09-2010 09:59:01 15.6 C 9.04 g/m*3 15.6 C 0 km/h
Sensor: Nr:Datum:Temp:Abs-Feuchte:Windchill:Wind:
Aussen-T/F 651 14-09-2010 10:11:02 15.6 C 9.04 g/m*3 15.6 C 0 km/h
652 14-09-2010 10:23:01 15.7 C 9.1 g/m*3 15.7 C 0 km/h
653 14-09-2010 10:35:01 16 C 8.99 g/m*3 16 C 0 km/h
654 14-09-2010 10:47:01 16.4 C 8.93 g/m*3 16.4 C 0 km/h
655 14-09-2010 10:59:01 16.8 C 9.29 g/m*3 16.8 C 0 km/h
656 14-09-2010 11:11:02 17 C 8.97 g/m*3 17 C 0 km/h
657 14-09-2010 11:23:01 17.1 C 9.03 g/m*3 17.1 C 0 km/h
658 14-09-2010 11:35:01 17 C 9.12 g/m*3 17 C 0 km/h
659 14-09-2010 11:47:01 16.7 C 9.24 g/m*3 16.7 C 0 km/h
660 14-09-2010 11:59:01 17.5 C 9.39 g/m*3 17.5 C 0 km/h
661 14-09-2010 12:11:02 17.8 C 9.26 g/m*3 17.8 C 0 km/h
662 14-09-2010 12:23:02 18.2 C 9.01 g/m*3 18.2 C 0 km/h
663 14-09-2010 12:35:01 18.5 C 9.18 g/m*3 18.5 C 0 km/h
664 14-09-2010 12:47:02 18.8 C 9.18 g/m*3 18.8 C 0 km/h
665 14-09-2010 12:59:02 18.9 C 9.23 g/m*3 18.9 C 0 km/h
666 14-09-2010 13:11:01 19.6 C 9.28 g/m*3 19.6 C 0 km/h
667 14-09-2010 13:23:01 19.7 C 9.34 g/m*3 19.7 C 0 km/h
668 14-09-2010 13:35:01 20.2 C 9.44 g/m*3 20.2 C 0 km/h
669 14-09-2010 13:47:02 20.4 C 9.02 g/m*3 20.4 C 0 km/h
670 14-09-2010 13:59:02 20 C 8.99 g/m*3 20 C 0 km/h
671 14-09-2010 14:11:02 19.7 C 8.83 g/m*3 19.7 C 0 km/h
672 14-09-2010 14:23:02 19.7 C 9 g/m*3 19.7 C 0 km/h
673 14-09-2010 14:35:02 19.8 C 8.71 g/m*3 19.8 C 0 km/h
674 14-09-2010 14:47:01 19.6 C 8.78 g/m*3 19.6 C 0 km/h
675 14-09-2010 14:59:01 19.5 C 8.89 g/m*3 19.5 C 0 km/h
Sensor: Nr:Datum:Temp:Abs-Feuchte:Windchill:Wind:
Aussen-T/F 676 14-09-2010 15:11:02 20 C 8.81 g/m*3 20 C 0 km/h
677 14-09-2010 15:23:01 20 C 8.64 g/m*3 20 C 0 km/h
678 14-09-2010 15:35:02 20.4 C 8.67 g/m*3 20.4 C 0 km/h
679 14-09-2010 15:47:01 20.7 C 8.46 g/m*3 20.7 C 0 km/h
680 14-09-2010 15:59:01 20.9 C 8.56 g/m*3 20.9 C 0 km/h
681 14-09-2010 16:11:02 20.8 C 8.15 g/m*3 20.8 C 0 km/h
682 14-09-2010 16:23:01 20.9 C 8.2 g/m*3 20.9 C 0 km/h
683 14-09-2010 16:35:02 20.6 C 7.7 g/m*3 20.6 C 0 km/h
684 14-09-2010 16:47:01 20.6 C 7.7 g/m*3 20.6 C 0 km/h
685 14-09-2010 16:59:01 20.5 C 7.65 g/m*3 20.5 C 0 km/h
686 14-09-2010 17:11:02 20.5 C 7.47 g/m*3 20.5 C 0 km/h
687 14-09-2010 17:23:01 20.4 C 7.43 g/m*3 20.4 C 0 km/h
688 14-09-2010 17:35:01 20 C 7.26 g/m*3 20 C 0 km/h
689 14-09-2010 17:47:01 20 C 7.43 g/m*3 20 C 0 km/h
690 14-09-2010 17:59:01 19.8 C 7.69 g/m*3 19.8 C 0 km/h
691 14-09-2010 18:11:01 19.6 C 7.77 g/m*3 19.6 C 0 km/h
692 14-09-2010 18:23:02 19.4 C 7.84 g/m*3 19.4 C 0 km/h
693 14-09-2010 18:35:01 19.3 C 7.8 g/m*3 19.3 C 0 km/h
694 14-09-2010 18:47:02 19.3 C 7.8 g/m*3 19.3 C 0 km/h
695 14-09-2010 18:59:02 19.1 C 7.87 g/m*3 19.1 C 0 km/h
696 14-09-2010 19:11:01 19 C 7.82 g/m*3 19 C 0 km/h
697 14-09-2010 19:23:01 18.9 C 7.78 g/m*3 18.9 C 0 km/h
698 14-09-2010 19:35:01 18.7 C 7.68 g/m*3 18.7 C 0 km/h
699 14-09-2010 19:47:02 18.7 C 7.68 g/m*3 18.7 C 0 km/h
700 14-09-2010 19:59:03 18.7 C 7.68 g/m*3 18.7 C 0 km/h
Sensor: Nr:Datum:Temp:Abs-Feuchte:Windchill:Wind:
Aussen-T/F 701 14-09-2010 20:11:01 18.7 C 7.68 g/m*3 18.7 C 0 km/h
702 14-09-2010 20:23:02 18.6 C 7.64 g/m*3 18.6 C 0 km/h
703 14-09-2010 20:35:02 18.7 C 7.68 g/m*3 18.7 C 0 km/h
704 14-09-2010 20:47:02 18.5 C 7.75 g/m*3 18.5 C 0 km/h
705 14-09-2010 20:59:02 18.5 C 7.75 g/m*3 18.5 C 0 km/h
706 14-09-2010 21:11:03 18.5 C 7.75 g/m*3 18.5 C 0 km/h
707 14-09-2010 21:23:02 18.5 C 7.75 g/m*3 18.5 C 0 km/h
708 14-09-2010 21:35:02 18.6 C 7.96 g/m*3 18.6 C 0 km/h
709 14-09-2010 21:47:01 18.5 C 7.75 g/m*3 18.5 C 0 km/h
710 14-09-2010 21:59:01 18.6 C 7.64 g/m*3 18.6 C 0 km/h
711 14-09-2010 22:12:03 18.6 C 7.8 g/m*3 18.6 C 0 km/h
712 14-09-2010 22:24:03 18.5 C 7.75 g/m*3 18.5 C 0 km/h
713 14-09-2010 22:36:03 18.4 C 7.86 g/m*3 18.4 C 0 km/h
714 14-09-2010 22:48:03 18.5 C 7.91 g/m*3 18.5 C 0 km/h
715 14-09-2010 23:00:03 18.5 C 7.91 g/m*3 18.5 C 0 km/h
716 14-09-2010 23:12:03 18.4 C 7.86 g/m*3 18.4 C 0 km/h
717 14-09-2010 23:24:03 18.2 C 7.77 g/m*3 18.2 C 0 km/h
718 14-09-2010 23:36:04 18 C 7.99 g/m*3 18 C 0 km/h
719 14-09-2010 23:48:04 18 C 7.99 g/m*3 18 C 0 km/h
720 15-09-2010 00:00:04 18 C 7.99 g/m*3 18 C 0 km/h
721 15-09-2010 00:12:04 18 C 7.83 g/m*3 18 C 0 km/h
722 15-09-2010 00:24:04 18 C 7.83 g/m*3 18 C 0 km/h
723 15-09-2010 00:36:04 18 C 7.83 g/m*3 18 C 0 km/h
724 15-09-2010 00:48:04 18.1 C 7.88 g/m*3 18.1 C 0 km/h
725 15-09-2010 01:00:04 18.1 C 7.73 g/m*3 18.1 C 0 km/h
Sensor: Nr:Datum:Temp:Abs-Feuchte:Windchill:Wind:
Aussen-T/F 726 15-09-2010 01:12:04 18.1 C 7.73 g/m*3 18.1 C 0 km/h
727 15-09-2010 01:24:04 18.2 C 7.62 g/m*3 18.2 C 0 km/h
728 15-09-2010 01:36:04 18.3 C 7.66 g/m*3 18.3 C 0 km/h
729 15-09-2010 01:48:04 18.2 C 7.62 g/m*3 18.2 C 0 km/h
730 15-09-2010 02:00:04 18.3 C 7.66 g/m*3 18.3 C 0 km/h
731 15-09-2010 02:12:04 18.4 C 7.55 g/m*3 18.4 C 0 km/h
732 15-09-2010 02:24:04 18.4 C 7.55 g/m*3 18.4 C 0 km/h
733 15-09-2010 02:36:05 18.3 C 7.66 g/m*3 18.3 C 0 km/h
734 15-09-2010 02:48:05 18.2 C 7.77 g/m*3 18.2 C 0 km/h
735 15-09-2010 03:00:05 18.2 C 7.93 g/m*3 18.2 C 0 km/h
736 15-09-2010 03:12:05 18.1 C 8.03 g/m*3 18.1 C 0 km/h
737 15-09-2010 03:24:05 18 C 8.29 g/m*3 18 C 0 km/h
738 15-09-2010 03:36:05 18 C 8.45 g/m*3 18 C 0 km/h
739 15-09-2010 03:48:05 18 C 8.45 g/m*3 18 C 0 km/h
740 15-09-2010 04:00:05 17.9 C 8.7 g/m*3 17.9 C 0 km/h
741 15-09-2010 04:12:05 17.9 C 9.01 g/m*3 17.9 C 0 km/h
742 15-09-2010 04:24:05 17.7 C 9.05 g/m*3 17.7 C 0 km/h
743 15-09-2010 04:36:05 17.6 C 9.3 g/m*3 17.6 C 0 km/h
744 15-09-2010 04:48:05 17.4 C 9.48 g/m*3 17.4 C 0 km/h
745 15-09-2010 05:00:05 17.4 C 9.48 g/m*3 17.4 C 0 km/h
746 15-09-2010 05:12:05 16.9 C 10.07 g/m*3 16.9 C 0 km/h
747 15-09-2010 05:24:05 14.4 C 9.27 g/m*3 14.4 C 0 km/h
748 15-09-2010 05:36:05 13.3 C 9.7 g/m*3 13.3 C 0 km/h
749 15-09-2010 05:48:05 13 C 9.87 g/m*3 13 C 0 km/h
750 15-09-2010 06:00:05 12.9 C 10.03 g/m*3 12.9 C 0 km/h
Sensor: Nr:Datum:Temp:Abs-Feuchte:Windchill:Wind:
Aussen-T/F 751 15-09-2010 06:12:05 12.8 C 10.08 g/m*3 12.8 C 0 km/h
752 15-09-2010 06:24:05 12.7 C 10.02 g/m*3 12.7 C 0 km/h
753 15-09-2010 06:36:05 12.7 C 10.13 g/m*3 12.7 C 0 km/h
754 15-09-2010 06:48:05 12.8 C 10.19 g/m*3 12.8 C 0 km/h
755 15-09-2010 07:00:06 12.8 C 10.3 g/m*3 12.8 C 0 km/h
756 15-09-2010 07:12:06 12.7 C 10.24 g/m*3 12.7 C 0 km/h
757 15-09-2010 07:24:06 12.7 C 10.24 g/m*3 12.7 C 0 km/h
758 15-09-2010 07:36:03 12.8 C 10.3 g/m*3 12.8 C 0 km/h
759 15-09-2010 07:48:02 12.7 C 10.35 g/m*3 12.7 C 0 km/h
760 15-09-2010 08:00:02 12.6 C 10.29 g/m*3 12.6 C 0 km/h
761 15-09-2010 08:12:02 12.7 C 10.35 g/m*3 12.7 C 0 km/h
762 15-09-2010 08:24:02 12.7 C 10.35 g/m*3 12.7 C 0 km/h
763 15-09-2010 08:36:01 12.8 C 10.42 g/m*3 12.8 C 0 km/h
764 15-09-2010 08:48:02 12.7 C 10.35 g/m*3 12.7 C 0 km/h
765 15-09-2010 09:00:02 12.5 C 10.22 g/m*3 12.5 C 0 km/h
766 15-09-2010 09:12:01 12.7 C 10.35 g/m*3 12.7 C 0 km/h
767 15-09-2010 09:24:01 12.7 C 10.24 g/m*3 12.7 C 0 km/h
768 15-09-2010 09:36:02 13.1 C 10.38 g/m*3 13.1 C 0 km/h
769 15-09-2010 09:48:02 13.6 C 10.59 g/m*3 13.6 C 0 km/h
770 15-09-2010 10:00:02 14 C 10.49 g/m*3 14 C 0 km/h
771 15-09-2010 10:12:02 14 C 10.01 g/m*3 14 C 0 km/h
772 15-09-2010 10:24:02 14.1 C 9.95 g/m*3 14.1 C 0 km/h
773 15-09-2010 10:36:02 14.1 C 9.71 g/m*3 14.1 C 0 km/h
774 15-09-2010 10:48:02 14.1 C 9.59 g/m*3 14.1 C 0 km/h
775 15-09-2010 11:00:02 14.2 C 9.52 g/m*3 14.2 C 0 km/h
Sensor: Nr:Datum:Temp:Abs-Feuchte:Windchill:Wind:
Aussen-T/F 776 15-09-2010 11:12:02 14.6 C 9.01 g/m*3 14.6 C 0 km/h
777 15-09-2010 11:24:02 15 C 8.72 g/m*3 15 C 0 km/h
778 15-09-2010 11:36:02 15.6 C 8.51 g/m*3 15.6 C 0 km/h
779 15-09-2010 11:48:01 15.7 C 8.43 g/m*3 15.7 C 0 km/h
780 15-09-2010 12:00:01 16.2 C 7.31 g/m*3 16.2 C 0 km/h
781 15-09-2010 12:12:01 16.4 C 7.4 g/m*3 16.4 C 0 km/h
782 15-09-2010 12:24:01 17.2 C 7.18 g/m*3 17.2 C 0 km/h
783 15-09-2010 12:36:01 16.6 C 7.06 g/m*3 16.6 C 0 km/h
784 15-09-2010 12:48:02 16.1 C 6.17 g/m*3 16.1 C 0 km/h
785 15-09-2010 13:00:02 16.1 C 6.44 g/m*3 16.1 C 0 km/h
786 15-09-2010 13:12:02 16.4 C 6.7 g/m*3 16.4 C 0 km/h
787 15-09-2010 13:24:02 17.4 C 6.52 g/m*3 17.4 C 0 km/h
788 15-09-2010 13:36:02 17.9 C 5.95 g/m*3 17.9 C 0 km/h
789 15-09-2010 13:48:02 18.4 C 5.82 g/m*3 18.4 C 0 km/h
790 15-09-2010 14:00:02 18.5 C 5.7 g/m*3 18.5 C 0 km/h
791 15-09-2010 14:12:02 18.1 C 5.87 g/m*3 18.1 C 0 km/h
792 15-09-2010 14:24:02 18.5 C 5.54 g/m*3 18.5 C 0 km/h
793 15-09-2010 14:36:02 18.3 C 5.47 g/m*3 18.3 C 0 km/h
794 15-09-2010 14:48:02 18.5 C 5.7 g/m*3 18.5 C 0 km/h
795 15-09-2010 15:00:03 19.5 C 5.87 g/m*3 19.5 C 0 km/h
796 15-09-2010 15:12:01 19.6 C 5.4 g/m*3 19.6 C 0 km/h
797 15-09-2010 15:24:01 19.3 C 5.64 g/m*3 19.3 C 0 km/h
798 15-09-2010 15:36:02 19.2 C 5.94 g/m*3 19.2 C 0 km/h
799 15-09-2010 15:48:02 20 C 5.88 g/m*3 20 C 0 km/h
800 15-09-2010 16:00:02 19.6 C 5.91 g/m*3 19.6 C 0 km/h
Sensor: Nr:Datum:Temp:Abs-Feuchte:Windchill:Wind:
Aussen-T/F 801 15-09-2010 16:12:02 19.6 C 5.91 g/m*3 19.6 C 0 km/h
802 15-09-2010 16:24:02 19.3 C 5.97 g/m*3 19.3 C 0 km/h
803 15-09-2010 16:36:02 19.6 C 6.08 g/m*3 19.6 C 0 km/h
804 15-09-2010 16:48:02 19.5 C 6.04 g/m*3 19.5 C 0 km/h
805 15-09-2010 17:00:02 20.4 C 5.84 g/m*3 20.4 C 0 km/h
806 15-09-2010 17:12:02 19 C 5.7 g/m*3 19 C 0 km/h
807 15-09-2010 17:24:02 19.4 C 6.01 g/m*3 19.4 C 0 km/h
808 15-09-2010 17:36:02 19.9 C 5.84 g/m*3 19.9 C 0 km/h
809 15-09-2010 17:48:02 19.7 C 5.6 g/m*3 19.7 C 0 km/h
810 15-09-2010 18:00:02 18.7 C 5.44 g/m*3 18.7 C 0 km/h
811 15-09-2010 18:12:02 18.2 C 5.28 g/m*3 18.2 C 0 km/h
812 15-09-2010 18:24:03 17.5 C 5.22 g/m*3 17.5 C 0 km/h
813 15-09-2010 18:36:02 17.7 C 5.28 g/m*3 17.7 C 0 km/h
814 15-09-2010 18:48:02 17.1 C 5.39 g/m*3 17.1 C 0 km/h
815 15-09-2010 19:00:02 16.9 C 5.61 g/m*3 16.9 C 0 km/h
816 15-09-2010 19:12:02 16.7 C 5.4 g/m*3 16.7 C 0 km/h
817 15-09-2010 19:24:02 16.6 C 5.65 g/m*3 16.6 C 0 km/h
818 15-09-2010 19:36:02 16.4 C 5.72 g/m*3 16.4 C 0 km/h
819 15-09-2010 19:48:02 16.4 C 5.86 g/m*3 16.4 C 0 km/h
820 15-09-2010 20:00:02 16.2 C 6.07 g/m*3 16.2 C 0 km/h
821 15-09-2010 20:12:02 16 C 6.27 g/m*3 16 C 0 km/h
822 15-09-2010 20:24:02 15.8 C 6.46 g/m*3 15.8 C 0 km/h
823 15-09-2010 20:36:01 15.7 C 6.15 g/m*3 15.7 C 0 km/h
824 15-09-2010 20:48:02 15.5 C 6.34 g/m*3 15.5 C 0 km/h
825 15-09-2010 21:00:03 15.4 C 6.31 g/m*3 15.4 C 0 km/h
Sensor: Nr:Datum:Temp:Abs-Feuchte:Windchill:Wind:
Aussen-T/F 826 15-09-2010 21:12:01 15.2 C 6.49 g/m*3 15.2 C 0 km/h
827 15-09-2010 21:24:01 15 C 6.41 g/m*3 15 C 0 km/h
828 15-09-2010 21:37:02 15.1 C 6.32 g/m*3 15.1 C 0 km/h
829 15-09-2010 21:49:02 15.2 C 6.36 g/m*3 15.2 C 0 km/h
830 15-09-2010 22:01:02 15.1 C 6.32 g/m*3 15.1 C 0 km/h
831 15-09-2010 22:13:02 15.1 C 6.06 g/m*3 15.1 C 0 km/h
832 15-09-2010 22:25:02 14.9 C 5.86 g/m*3 14.9 C 0 km/h
833 15-09-2010 22:37:02 14.8 C 5.83 g/m*3 14.8 C 0 km/h
834 15-09-2010 22:49:02 14.9 C 5.74 g/m*3 14.9 C 0 km/h
835 15-09-2010 23:01:02 15 C 5.51 g/m*3 15 C 0 km/h
836 15-09-2010 23:13:02 15 C 5.51 g/m*3 15 C 0 km/h
837 15-09-2010 23:25:02 14.9 C 5.74 g/m*3 14.9 C 0 km/h
838 15-09-2010 23:37:02 14.8 C 5.7 g/m*3 14.8 C 0 km/h
839 15-09-2010 23:49:02 14.6 C 5.76 g/m*3 14.6 C 0 km/h

Legende:
   Min
   Max


Maximal/Minimal-Werte vom 23.02.2003 - 30.09.2020

Sensor Min Max Avg
Temp
(Aussen-T/F)
-16.4 °C
20-12-2009  01:30:01
40.4 °C
25-07-2019  16:20:00
11.32 °C

Die Daten stammen von einer Davis Vantage Pro 2 Wetter-Station und werden unter Linux mit der Software wview2wettercgi und aufbereitet. Alle Angaben erfolgen ohne Gewähr für ihre Vollständigkeit oder Richtigkeit.
Kontakt: Rainer Krienke krienke@uni-koblenz.de . Meine Webseiten an der Uni Koblenz oder privat.
Version: $Revision: 0.78 $